When you browse on this site, cookies collect data to enhance your experience and personalize the content and advertising you see.
Visit our Privacy Policy to learn more. By continuing to use the site, you agree to this use of cookies and data.
  • In Spain
  • List of Countries
  • For 7 days
  • Water Temperature
  • Satellite Maps
  • Weather Map
  • Weather Widgets
  • user-avatar
    Login

    Hourly Weather Encamp

    Today, 20 March, Wednesday

    Time Temperature Precipitation Wind Pressure Humidity
    00:00 -4°C° 0 mm 2 mps 626 mmHg 85%
    01:00 -4°C° 0 mm 2 mps 626 mmHg 85%
    02:00 -4°C° 0 mm 2 mps 626 mmHg 85%
    03:00 -5°C° 0 mm 3 mps 626 mmHg 85%
    04:00 -5°C° 0 mm 2 mps 625 mmHg 86%
    05:00 -5°C° 0 mm 2 mps 625 mmHg 87%
    06:00 -6°C° 0 mm 2 mps 625 mmHg 88%
    07:00 -4°C° 0 mm 2 mps 626 mmHg 75%
    08:00 -2°C° 0 mm 2 mps 627 mmHg 63%
    09:00 +1°C° 0 mm 2 mps 628 mmHg 50%
    10:00 +2°C° 0 mm 2 mps 628 mmHg 46%
    11:00 +4°C° 0 mm 2 mps 629 mmHg 43%
    12:00 +5°C° 0 mm 2 mps 629 mmHg 39%
    13:00 +5°C° 0 mm 2 mps 629 mmHg 41%
    14:00 +5°C° 0 mm 2 mps 629 mmHg 43%
    15:00 +5°C° 0 mm 2 mps 629 mmHg 45%
    16:00 +2°C° 0 mm 2 mps 628 mmHg 55%
    17:00 -1°C° 0 mm 2 mps 627 mmHg 65%
    18:00 -1°C° 0 mm 1 mps 626 mmHg 76%
    19:00 -1°C° 0 mm 1 mps 626 mmHg 78%
    20:00 -2°C° 0 mm 1 mps 626 mmHg 80%
    21:00 -3°C° 0 mm 1 mps 626 mmHg 82%
    22:00 -3°C° 0 mm 1 mps 626 mmHg 79%
    23:00 -3°C° 0 mm 1 mps 626 mmHg 75%

    Tomorrow, 21 March, Thursday

    Time Temperature Precipitation Wind Pressure Humidity
    00:00 -3°C° 0 mm 1 mps 627 mmHg 71%
    01:00 -3°C° 0 mm 1 mps 626 mmHg 71%
    02:00 -3°C° 0 mm 1 mps 626 mmHg 71%
    03:00 -3°C° 0 mm 1 mps 626 mmHg 71%
    04:00 -3°C° 0 mm 1 mps 626 mmHg 71%
    05:00 -3°C° 0 mm 1 mps 626 mmHg 71%
    06:00 -3°C° 0 mm 1 mps 626 mmHg 71%
    07:00 0°C° 0 mm 1 mps 627 mmHg 59%
    08:00 +3°C° 0 mm 1 mps 629 mmHg 48%
    09:00 +6°C° 0 mm 1 mps 630 mmHg 36%
    10:00 +7°C° 0 mm 1 mps 630 mmHg 35%
    11:00 +8°C° 0 mm 1 mps 631 mmHg 33%
    12:00 +9°C° 0 mm 1 mps 631 mmHg 31%
    13:00 +9°C° 0 mm 1 mps 630 mmHg 33%
    14:00 +9°C° 0 mm 1 mps 630 mmHg 35%
    15:00 +9°C° 0 mm 1 mps 630 mmHg 37%
    16:00 +7°C° 0 mm 1 mps 629 mmHg 44%
    17:00 +4°C° 0 mm 1 mps 628 mmHg 51%
    18:00 +1°C° 0 mm 0 mps 627 mmHg 58%
    19:00 +1°C° 0 mm 1 mps 627 mmHg 58%
    20:00 +1°C° 0 mm 1 mps 627 mmHg 59%
    21:00 0°C° 0 mm 1 mps 627 mmHg 59%
    22:00 0°C° 0 mm 1 mps 627 mmHg 56%
    23:00 0°C° 0 mm 1 mps 627 mmHg 54%

    Day after tomorrow, 22 March, Friday

    Time Temperature Precipitation Wind Pressure Humidity
    00:00 0°C° 0 mm 1 mps 627 mmHg 51%
    01:00 0°C° 0 mm 1 mps 627 mmHg 49%
    02:00 0°C° 0 mm 1 mps 627 mmHg 47%
    03:00 0°C° 0 mm 1 mps 627 mmHg 45%
    04:00 0°C° 0 mm 1 mps 627 mmHg 45%
    05:00 0°C° 0 mm 1 mps 627 mmHg 44%
    06:00 0°C° 0 mm 1 mps 627 mmHg 44%
    07:00 +3°C° 0 mm 1 mps 628 mmHg 40%
    08:00 +6°C° 0 mm 1 mps 629 mmHg 36%
    09:00 +8°C° 0 mm 1 mps 630 mmHg 32%
    10:00 +10°C° 0 mm 1 mps 631 mmHg 31%
    11:00 +11°C° 0 mm 1 mps 631 mmHg 31%
    12:00 +12°C° 0 mm 1 mps 631 mmHg 31%
    13:00 +12°C° 0 mm 1 mps 631 mmHg 32%
    14:00 +11°C° 0 mm 1 mps 630 mmHg 34%
    15:00 +11°C° 0 mm 1 mps 630 mmHg 36%
    16:00 +9°C° 0 mm 1 mps 629 mmHg 44%
    17:00 +7°C° 0 mm 1 mps 628 mmHg 52%
    18:00 +3°C° 0 mm 0 mps 627 mmHg 60%
    19:00 +3°C° 0 mm 0 mps 627 mmHg 62%
    20:00 +3°C° 0 mm 1 mps 627 mmHg 64%
    21:00 +2°C° 0 mm 1 mps 627 mmHg 66%
    22:00 +2°C° 0 mm 1 mps 627 mmHg 66%
    23:00 +2°C° 0 mm 1 mps 627 mmHg 65%

    23 March, Saturday

    Time Temperature Precipitation Wind Pressure Humidity
    00:00 +2°C° 0 mm 1 mps 627 mmHg 64%
    01:00 +2°C° 0 mm 1 mps 627 mmHg 62%
    02:00 +2°C° 0 mm 1 mps 627 mmHg 61%
    03:00 +2°C° 0 mm 1 mps 627 mmHg 60%
    04:00 +2°C° 0 mm 1 mps 627 mmHg 59%
    05:00 +2°C° 0 mm 1 mps 627 mmHg 59%
    06:00 +2°C° 0 mm 1 mps 627 mmHg 58%
    07:00 +4°C° 0 mm 1 mps 628 mmHg 50%
    08:00 +7°C° 0 mm 1 mps 629 mmHg 42%
    09:00 +9°C° 0 mm 0 mps 630 mmHg 34%
    10:00 +11°C° 0 mm 1 mps 630 mmHg 33%
    11:00 +12°C° 0 mm 1 mps 631 mmHg 32%
    12:00 +13°C° 0 mm 1 mps 631 mmHg 31%
    13:00 +13°C° 0 mm 1 mps 630 mmHg 32%
    14:00 +13°C° 0 mm 1 mps 630 mmHg 34%
    15:00 +12°C° 0 mm 1 mps 629 mmHg 35%
    16:00 +11°C° 0 mm 1 mps 628 mmHg 43%
    17:00 +9°C° 0 mm 1 mps 628 mmHg 51%
    18:00 +6°C° 0 mm 0 mps 627 mmHg 59%
    19:00 +5°C° 0 mm 0 mps 627 mmHg 63%
    20:00 +3°C° 0 mm 0 mps 627 mmHg 66%
    21:00 +3°C° 0 mm 1 mps 626 mmHg 70%
    22:00 +3°C° 0 mm 1 mps 626 mmHg 71%
    23:00 +3°C° 0 mm 1 mps 626 mmHg 71%

    24 March, Sunday

    Time Temperature Precipitation Wind Pressure Humidity
    00:00 +3°C° 0 mm 1 mps 626 mmHg 72%
    01:00 +3°C° 0 mm 1 mps 626 mmHg 72%
    02:00 +3°C° 0 mm 1 mps 625 mmHg 72%
    03:00 +2°C° 0 mm 1 mps 625 mmHg 72%
    04:00 +2°C° 0 mm 1 mps 625 mmHg 71%
    05:00 +2°C° 0 mm 1 mps 625 mmHg 70%
    06:00 +2°C° 0 mm 1 mps 625 mmHg 69%
    07:00 +5°C° 0 mm 1 mps 626 mmHg 59%
    08:00 +6°C° 0 mm 0 mps 628 mmHg 49%
    09:00 +9°C° 0 mm 0 mps 629 mmHg 40%
    10:00 +10°C° 0 mm 0 mps 629 mmHg 38%
    11:00 +12°C° 0 mm 1 mps 629 mmHg 37%
    12:00 +13°C° 0 mm 1 mps 630 mmHg 35%
    13:00 +13°C° 0 mm 1 mps 629 mmHg 38%
    14:00 +12°C° 0 mm 1 mps 628 mmHg 41%
    15:00 +12°C° 0 mm 1 mps 628 mmHg 44%
    16:00 +10°C° 0.1 mm 1 mps 627 mmHg 52%
    17:00 +9°C° 0.1 mm 1 mps 626 mmHg 61%
    18:00 +7°C° 0.1 mm 1 mps 626 mmHg 69%
    19:00 +6°C° 0 mm 1 mps 626 mmHg 75%
    20:00 +5°C° 0 mm 1 mps 625 mmHg 81%
    21:00 +4°C° 0 mm 1 mps 625 mmHg 86%
    22:00 +3°C° 0 mm 1 mps 625 mmHg 88%
    23:00 +3°C° 0 mm 1 mps 625 mmHg 90%

    25 March, Monday

    Time Temperature Precipitation Wind Pressure Humidity
    00:00 +3°C° 0 mm 1 mps 625 mmHg 91%
    01:00 +2°C° 0 mm 1 mps 625 mmHg 90%
    02:00 +2°C° 0 mm 1 mps 624 mmHg 88%
    03:00 +2°C° 0 mm 1 mps 624 mmHg 86%
    04:00 +2°C° 0 mm 1 mps 624 mmHg 80%
    05:00 +2°C° 0 mm 1 mps 624 mmHg 74%
    06:00 +1°C° 0 mm 1 mps 624 mmHg 67%
    07:00 +4°C° 0 mm 1 mps 625 mmHg 56%
    08:00 +7°C° 0 mm 1 mps 626 mmHg 44%
    09:00 +9°C° 0 mm 1 mps 627 mmHg 32%
    10:00 +10°C° 0 mm 1 mps 628 mmHg 32%
    11:00 +12°C° 0 mm 2 mps 628 mmHg 31%
    12:00 +13°C° 0 mm 2 mps 628 mmHg 30%
    13:00 +13°C° 0 mm 2 mps 628 mmHg 34%
    14:00 +12°C° 0 mm 2 mps 627 mmHg 37%
    15:00 +12°C° 0 mm 2 mps 626 mmHg 41%
    16:00 +9°C° 0 mm 2 mps 626 mmHg 52%
    17:00 +7°C° 0 mm 2 mps 625 mmHg 64%
    18:00 +5°C° 0 mm 2 mps 624 mmHg 76%
    19:00 +4°C° 0 mm 2 mps 624 mmHg 80%
    20:00 +3°C° 0 mm 2 mps 624 mmHg 85%
    21:00 +2°C° 0 mm 2 mps 624 mmHg 90%
    22:00 +2°C° 0 mm 2 mps 624 mmHg 84%
    23:00 +1°C° 0 mm 2 mps 624 mmHg 79%
    Show more